Home > Weather > Lienz > Past weeks

Flag for Austria Weather for the Past 2 Weeks in Lienz, Tyrol, Austria

Now
67 °F

Mild.


Feels Like: 67 °F
Forecast: 42 / 68 °F
Wind: 5 mph from Southeast

Location: Lienz

Current Time: May 6, 2016 at 5:23:19 PM

Latest Report: May 6, 2016 at 5:00 PM


Visibility: N/A

Pressure: 29.94 "Hg (27.67 "Hg at 677m altitude)

Humidity: 34%

Dew Point: 38 °F

Location of LienzLocation

Historic Weather in Lienz — Graph

°F

Lienz Temperature Yesterday

Maximum temperature yesterday: 65 °F (at 3:00 PM)
Minimum temperature yesterday: 36 °F (at 6:00 AM)
Average temperature yesterday: 51 °F

High & Low Weather Summary for the Past Weeks

 TemperatureHumidityPressure
High72 °F (Apr 22, 3:00 PM)96% (Apr 27, 2:00 PM)30.34 "Hg (Apr 27, 2:00 PM)
Low27 °F (Apr 26, 5:00 AM)20% (Apr 25, 4:00 PM)29.55 "Hg (Apr 23, 5:00 PM)
Average49 °F61%29.96 "Hg
* Reported Apr 21 4:00 PM — May 6 4:00 PM, Lienz, Weather by CustomWeather, © 2016

Note: Actual official high and low records may vary slightly from our data, if they occured in-between our weather recording intervals... More about our weather records

Advertising

Lienz Weather History for the Previous 24 Hours

Scroll right to see more
 ConditionsComfort  
Time TempWeatherWind HumidityBarometerVisibility
4:00 PM
Fri, May 6
67 °FMild.6 mph33%29.96 "HgN/A
3:00 PM67 °FMild.5 mph33%29.98 "HgN/A
2:00 PM66 °FPartly sunny.5 mph32%30.00 "Hg19 mi
1:00 PM67 °FMild.5 mph35%30.01 "HgN/A
12:00 PM64 °FMild.2 mph44%30.05 "HgN/A
11:00 AM60 °FRefreshingly cool.1 mph46%30.09 "HgN/A
10:00 AM55 °FRefreshingly cool.1 mph52%30.13 "HgN/A
9:00 AM51 °FCool.1 mph60%30.17 "HgN/A
8:00 AM46 °FCool.No wind72%30.22 "HgN/A
7:00 AM38 °FChilly.1 mph88%30.26 "HgN/A
6:00 AM38 °FChilly.1 mph86%30.26 "HgN/A
5:00 AM38 °FChilly.No wind88%30.27 "HgN/A
4:00 AM39 °FChilly.1 mph87%30.27 "HgN/A
3:00 AM40 °FQuite cool.2 mph86%30.28 "HgN/A
2:00 AM41 °FQuite cool.No wind85%30.28 "HgN/A
1:00 AM42 °FQuite cool.No wind83%30.27 "HgN/A
12:00 AM44 °FQuite cool.1 mph80%30.26 "HgN/A
11:00 PM
Thu, May 5
46 °FCool.1 mph76%30.25 "HgN/A
10:00 PM48 °FCool.1 mph71%30.22 "HgN/A
9:00 PM52 °FCool.1 mph61%30.17 "HgN/A
8:00 PM58 °FRefreshingly cool.1 mph46%30.13 "HgN/A
7:00 PM60 °FRefreshingly cool.2 mph46%30.11 "HgN/A
6:00 PM62 °FRefreshingly cool.5 mph41%30.11 "HgN/A
5:00 PM62 °FRefreshingly cool.5 mph41%30.12 "HgN/A
Weather by CustomWeather, © 2016

See weather overviewHow to use our weather pages